Home   Weather   Pomona   Past weeks

Flag for USA Past Weather in Pomona, California, USA — Yesterday and Last 2 Weeks

Now
66 °F

Clear.


Feels Like: 66 °F
Forecast: 51 / 86 °F
Wind: 7 mph from West

Location: Chino Airport

Current Time: Apr 30, 2017 at 9:55:30 pm

Latest Report: Apr 30, 2017 at 8:53 pm


Visibility: 8 mi

Pressure: 29.99 "Hg

Humidity: 37%

Dew Point: 39 °F

Location of PomonaLocation

Past Weather in Pomona — Graph

°F

Pomona Temperature Yesterday

Maximum temperature yesterday: 86 °F (at 3:53 pm)
Minimum temperature yesterday: 57 °F (at 11:53 pm)
Average temperature yesterday: 72 °F

High & Low Weather Summary for the Past Weeks

 TemperatureHumidityPressure
High95 °F (Apr 21, 2:53 pm)93% (Apr 19, 4:53 am)30.13 "Hg (Apr 19, 4:53 am)
Low47 °F (Apr 17, 5:53 am)7% (Apr 29, 4:53 pm)29.70 "Hg (Apr 28, 4:53 pm)
Average68 °F53%29.94 "Hg
* Reported Apr 15 7:53 pm — Apr 30 7:53 pm, Pomona, Weather by CustomWeather, © 2017

Note: Actual official high and low records may vary slightly from our data, if they occured in-between our weather recording intervals... More about our weather records

Advertising

Pomona Weather History for the Previous 24 Hours

Scroll right to see more
 ConditionsComfort  
Time TempWeatherWind HumidityBarometerVisibility
7:53 pm
Sun, Apr 30
70 °FClear.6 mph27%29.99 "Hg10 mi
6:53 pm78 °FSunny.13 mph16%29.98 "Hg10 mi
5:53 pm82 °FSunny.16 mph18%29.98 "Hg10 mi
4:53 pm85 °FSunny.17 mph14%29.97 "Hg10 mi
3:53 pm87 °FSunny.16 mph12%29.98 "Hg10 mi
2:53 pm89 °FSunny.16 mph11%30.00 "Hg10 mi
1:53 pm91 °FSunny.13 mph9%30.01 "Hg10 mi
12:53 pm90 °FSunny.13 mph9%30.03 "Hg8 mi
11:53 am87 °FSunny.3 mph13%30.06 "Hg10 mi
10:53 am82 °FSunny.3 mph17%30.08 "Hg10 mi
9:53 am75 °FSunny.3 mph22%30.09 "Hg10 mi
8:53 am69 °FSunny.No wind25%30.10 "Hg10 mi
7:53 am62 °FSunny.No wind35%30.09 "Hg10 mi
6:53 am51 °FSunny.No wind61%30.08 "Hg10 mi
6:36 am48 °FSunny.No wind66%30.09 "Hg3 mi
5:53 am49 °FClear.No wind59%30.06 "Hg6 mi
4:53 am53 °FClear.No wind48%30.06 "Hg8 mi
3:53 am52 °FClear.No wind53%30.06 "Hg6 mi
2:53 am55 °FClear.No wind49%30.06 "Hg7 mi
1:53 am54 °FClear.No wind51%30.07 "Hg7 mi
12:53 am51 °FClear.3 mph61%30.07 "Hg6 mi
11:53 pm
Sat, Apr 29
57 °FClear.No wind46%30.06 "Hg6 mi
10:53 pm59 °FClear.No wind38%30.06 "Hg6 mi
9:53 pm62 °FClear.3 mph32%30.05 "Hg6 mi
Weather by CustomWeather, © 2017

See weather overviewHow to use our weather pages